Location: ???????
(54.9996°N, 37.9529°E)
Time: 03:48:09
(UTC+00:00)

COSMOS 2441 - Pass Details

Date: 14 April 2024
Orbit: 705 x 729 km, 98.2° (Epoch: 20 May)

Event Time Altitude Azimuth Distance (km) Brightness Sun altitude
Rises 23:58:48 0° 15° (NNE) 3,168 8.9 -18.2°
Reaches altitude 10° 00:01:06 10° 16° (NNE) 2,240 7.9 -18.0°
Maximum altitude 00:06:02 87° 105° (ESE) 736 4.4 -17.6°
Enters shadow 00:08:41 28° 195° (SSW) 1,352 5.3 -17.3°
